FW2335 Weather Reports


Display with metric or nautical units.
time (UTC)temp
F
wind
direction
speed
MPH
gust
MPH
rain 1hr
in
rain 24hr
in
rain mn
in
humidity
%
barometer
mb
20210619061526 75 180 3.0 5.0 0.00 0.00 0.00 79 1013.4
20210619061020 75 180 2.0 5.0 0.00 0.00 0.00 79 1013.4
20210619060520 75 203 3.0 7.0 0.00 0.00 0.00 79 1013.4
20210619060021 75 203 2.0 4.0 0.00 0.00 0.00 79 1013.5
20210619055558 75 180 2.0 5.0 0.00 0.00 0.00 79 1013.5
20210619055020 76 180 3.0 6.0 0.00 0.00 0.00 79 1013.5
20210619054520 76 180 2.0 5.0 0.00 0.00 0.00 79 1013.6
20210619054020 76 158 3.0 7.0 0.00 0.00 0.00 79 1013.6
20210619053520 76 158 3.0 6.0 0.00 0.00 0.00 79 1013.7
20210619053020 76 180 3.0 6.0 0.00 0.00 0.00 79 1013.7
20210619052520 76 158 3.0 6.0 0.00 0.00 0.00 79 1013.7
20210619052020 76 158 2.0 5.0 0.00 0.00 0.00 78 1013.8
20210619051520 76 180 2.0 6.0 0.00 0.00 0.00 78 1013.7
20210619051020 76 180 3.0 6.0 0.00 0.00 0.00 78 1013.8
20210619050520 77 158 2.0 5.0 0.00 0.00 0.00 78 1013.7
20210619050020 77 158 3.0 6.0 0.00 0.00 0.00 78 1013.7
20210619045523 77 158 3.0 7.0 0.00 0.00 0.00 78 1013.8
20210619045020 77 158 3.0 6.0 0.00 0.00 0.00 78 1013.8
20210619044520 77 158 3.0 6.0 0.00 0.00 0.00 78 1013.7
20210619044020 77 158 3.0 7.0 0.00 0.00 0.00 78 1013.7
20210619043523 77 158 3.0 7.0 0.00 0.00 0.00 78 1013.7
20210619043020 77 158 4.0 9.0 0.00 0.00 0.00 78 1013.8
20210619042519 77 158 4.0 8.0 0.00 0.00 0.00 78 1013.8
20210619042020 77 158 3.0 7.0 0.00 0.00 0.00 78 1013.7
20210619041520 78 158 3.0 6.0 0.00 0.00 0.00 78 1013.7
20210619041019 78 158 3.0 7.0 0.00 0.00 0.00 78 1013.7
20210619040520 78 158 4.0 6.0 0.00 0.00 0.00 77 1013.6
20210619040020 78 158 3.0 8.0 0.00 0.00 0.00 77 1013.7
20210619035558 78 158 3.0 7.0 0.00 0.00 0.00 77 1013.7
20210619035020 78 158 3.0 8.0 0.00 0.00 0.00 77 1013.7
20210619034522 78 135 3.0 8.0 0.00 0.00 0.00 77 1013.7
20210619034020 78 135 3.0 8.0 0.00 0.00 0.00 77 1013.6
20210619033522 78 158 3.0 9.0 0.00 0.00 0.00 77 1013.6
20210619033021 78 135 4.0 9.0 0.00 0.00 0.00 77 1013.5
20210619032521 78 135 4.0 9.0 0.00 0.00 0.00 77 1013.5
20210619032023 78 158 4.0 8.0 0.00 0.00 0.00 77 1013.3
20210619031524 78 158 4.0 8.0 0.00 0.00 0.00 76 1013.3
20210619031021 78 158 4.0 8.0 0.00 0.00 0.00 77 1013.2
20210619030522 78 158 4.0 7.0 0.00 0.00 0.00 77 1013.2
20210619030022 79 158 3.0 8.0 0.00 0.00 0.00 76 1013.1
20210619025522 79 135 3.0 6.0 0.00 0.00 0.00 76 1013.2
20210619025022 79 158 3.0 7.0 0.00 0.00 0.00 76 1013.1
20210619024521 79 135 3.0 6.0 0.00 0.00 0.00 76 1013.0
20210619024021 79 158 3.0 8.0 0.00 0.00 0.00 75 1012.9
20210619023521 79 158 3.0 7.0 0.00 0.00 0.00 75 1012.8
20210619023022 80 158 4.0 8.0 0.00 0.00 0.00 74 1012.8
20210619022522 80 158 4.0 8.0 0.00 0.00 0.00 74 1012.8
20210619022021 80 135 4.0 9.0 0.00 0.00 0.00 73 1012.7
20210619021522 81 135 4.0 8.0 0.00 0.00 0.00 73 1012.7
20210619021021 81 135 4.0 8.0 0.00 0.00 0.00 72 1012.6
20210619020521 82 135 4.0 8.0 0.00 0.00 0.00 70 1012.7
20210619020021 84 135 3.0 9.0 0.00 0.00 0.00 68 1012.7
20210619015610 84 135 3.0 6.0 0.00 0.00 0.00 66 1012.7
20210619015021 85 135 3.0 8.0 0.00 0.00 0.00 65 1012.6
20210619014523 85 158 3.0 6.0 0.00 0.00 0.00 65 1012.7
20210619014021 85 158 4.0 8.0 0.00 0.00 0.00 64 1012.7
20210619013521 86 158 4.0 8.0 0.00 0.00 0.00 63 1012.6
20210619013021 86 158 4.0 8.0 0.00 0.00 0.00 62 1012.6
20210619012521 87 135 3.0 7.0 0.00 0.00 0.00 61 1012.5
20210619012021 87 158 4.0 8.0 0.00 0.00 0.00 61 1012.5
20210619011522 88 158 4.0 8.0 0.00 0.00 0.00 60 1012.5
20210619011021 88 135 4.0 10.0 0.00 0.00 0.00 59 1012.5
20210619010521 89 135 4.0 9.0 0.00 0.00 0.00 58 1012.4
20210619010023 89 135 4.0 9.0 0.00 0.00 0.00 58 1012.3
20210619005521 90 135 3.0 7.0 0.00 0.00 0.00 58 1012.3
20210619005021 90 135 3.0 7.0 0.00 0.00 0.00 56 1012.2
20210619004522 91 135 3.0 7.0 0.00 0.00 0.00 55 1012.2
20210619004022 91 158 3.0 8.0 0.00 0.00 0.00 55 1012.2
20210619003521 91 135 4.0 12.0 0.00 0.00 0.00 55 1012.2
20210619003022 91 158 3.0 9.0 0.00 0.00 0.00 56 1012.2
20210619002522 91 135 4.0 10.0 0.00 0.00 0.00 55 1012.2
20210619002022 91 135 4.0 9.0 0.00 0.00 0.00 55 1012.2
20210619001524 91 135 4.0 10.0 0.00 0.00 0.00 54 1012.2
20210619001021 91 135 4.0 9.0 0.00 0.00 0.00 55 1012.2
20210619000528 92 135 5.0 11.0 0.00 0.00 0.00 53 1012.1
20210619000022 92 158 4.0 10.0 0.00 0.00 0.00 54 1012.2
20210618235522 92 135 5.0 12.0 0.00 0.00 0.00 54 1012.1
20210618235021 92 135 5.0 11.0 0.00 0.00 0.00 53 1012.2
20210618234522 93 135 5.0 10.0 0.00 0.00 0.00 53 1012.2
20210618234021 93 113 2.0 8.0 0.00 0.00 0.00 55 1012.2
20210618233521 93 135 4.0 10.0 0.00 0.00 0.00 53 1012.1
20210618233023 93 158 5.0 10.0 0.00 0.00 0.00 52 1012.1
20210618232522 93 135 6.0 10.0 0.00 0.00 0.00 52 1012.2
20210618232021 94 158 4.0 10.0 0.00 0.00 0.00 51 1012.2
20210618231524 93 158 4.0 10.0 0.00 0.00 0.00 53 1012.2
20210618231026 93 135 2.0 6.0 0.00 0.00 0.00 53 1012.2
20210618230521 93 135 4.0 9.0 0.00 0.00 0.00 50 1012.2
20210618230022 94 135 4.0 10.0 0.00 0.00 0.00 51 1012.3
20210618225521 93 158 5.0 11.0 0.00 0.00 0.00 52 1012.2
20210618225022 93 135 6.0 12.0 0.00 0.00 0.00 52 1012.1
20210618224521 94 135 4.0 9.0 0.00 0.00 0.00 50 1012.3
20210618224021 94 135 5.0 11.0 0.00 0.00 0.00 50 1012.4
20210618223521 94 158 5.0 10.0 0.00 0.00 0.00 51 1012.4
20210618223022 94 135 3.0 8.0 0.00 0.00 0.00 54 1012.4
20210618222521 93 158 4.0 12.0 0.00 0.00 0.00 53 1012.3
20210618222021 93 180 5.0 10.0 0.00 0.00 0.00 51 1012.3
20210618221521 94 158 4.0 9.0 0.00 0.00 0.00 51 1012.4
20210618221022 95 158 4.0 8.0 0.00 0.00 0.00 52 1012.3
20210618220521 94 135 4.0 10.0 0.00 0.00 0.00 52 1012.4
20210618220021 94 135 4.0 11.0 0.00 0.00 0.00 52 1012.4
20210618215610 94 203 4.0 9.0 0.00 0.00 0.00 50 1012.4
20210618215023 94 158 4.0 10.0 0.00 0.00 0.00 51 1012.4
20210618214524 94 158 4.0 11.0 0.00 0.00 0.00 52 1012.4
20210618214021 94 203 5.0 10.0 0.00 0.00 0.00 51 1012.5
20210618213521 94 135 4.0 9.0 0.00 0.00 0.00 54 1012.6
20210618213021 94 158 5.0 10.0 0.00 0.00 0.00 51 1012.6
20210618212521 94 135 4.0 13.0 0.00 0.00 0.00 51 1012.6
20210618212022 94 135 4.0 13.0 0.00 0.00 0.00 50 1012.7
20210618211521 94 158 3.0 12.0 0.00 0.00 0.00 52 1012.7
20210618211021 94 113 3.0 7.0 0.00 0.00 0.00 49 1012.7
20210618210521 95 113 5.0 11.0 0.00 0.00 0.00 50 1012.8
20210618210021 95 135 2.0 6.0 0.00 0.00 0.00 51 1012.9
20210618205559 96 158 1.0 5.0 0.00 0.00 0.00 48 1012.9
20210618205021 95 158 4.0 13.0 0.00 0.00 0.00 49 1013.0
20210618204521 95 113 2.0 9.0 0.00 0.00 0.00 47 1013.0
20210618204021 95 135 3.0 12.0 0.00 0.00 0.00 46 1013.1
20210618203521 94 225 4.0 8.0 0.00 0.00 0.00 46 1013.1
20210618203021 94 135 4.0 9.0 0.00 0.00 0.00 47 1013.1
20210618202520 94 158 3.0 8.0 0.00 0.00 0.00 49 1013.2
20210618202020 94 158 5.0 10.0 0.00 0.00 0.00 49 1013.2
20210618201520 94 135 5.0 12.0 0.00 0.00 0.00 53 1013.2
20210618201021 93 135 6.0 14.0 0.00 0.00 0.00 52 1013.2
20210618200521 93 158 4.0 9.0 0.00 0.00 0.00 53 1013.3
20210618200023 94 158 4.0 10.0 0.00 0.00 0.00 52 1013.4
20210618195521 94 203 4.0 11.0 0.00 0.00 0.00 54 1013.4
20210618195023 94 203 4.0 14.0 0.00 0.00 0.00 50 1013.4
20210618194521 94 203 5.0 9.0 0.00 0.00 0.00 52 1013.5
20210618194021 94 135 5.0 12.0 0.00 0.00 0.00 51 1013.6
20210618193521 94 135 4.0 11.0 0.00 0.00 0.00 51 1013.6
20210618193023 93 158 4.0 10.0 0.00 0.00 0.00 51 1013.6
20210618192521 93 135 4.0 13.0 0.00 0.00 0.00 53 1013.6
20210618192021 93 135 6.0 12.0 0.00 0.00 0.00 52 1013.6
20210618191521 93 158 5.0 16.0 0.00 0.00 0.00 53 1013.6
20210618191020 93 135 5.0 16.0 0.00 0.00 0.00 55 1013.7
20210618190521 93 158 6.0 13.0 0.00 0.00 0.00 53 1013.8
20210618190021 92 135 4.0 12.0 0.00 0.00 0.00 56 1013.9
20210618185524 91 158 4.0 9.0 0.00 0.00 0.00 59 1014.0
20210618185020 91 225 4.0 9.0 0.00 0.00 0.00 58 1014.0
20210618184520 91 135 3.0 8.0 0.00 0.00 0.00 59 1014.1
20210618183020 93 158 4.0 11.0 0.00 0.00 0.00 57 1014.2
20210618182520 93 135 6.0 11.0 0.00 0.00 0.00 56 1014.2
20210618182021 92 158 4.0 13.0 0.00 0.00 0.00 59 1014.3
20210618181522 92 135 4.0 12.0 0.00 0.00 0.00 57 1014.4
20210618181020 91 158 5.0 14.0 0.00 0.00 0.00 59 1014.5
20210618180521 91 203 7.0 14.0 0.00 0.00 0.00 57 1014.5
20210618180021 92 158 3.0 10.0 0.00 0.00 0.00 59 1014.4
20210618175520 91 158 4.0 11.0 0.00 0.00 0.00 61 1014.5
20210618175020 91 203 5.0 10.0 0.00 0.00 0.00 59 1014.5
20210618174529 90 135 2.0 6.0 0.00 0.00 0.00 59 1014.5
20210618174021 89 225 4.0 7.0 0.00 0.00 0.00 62 1014.6
20210618173520 89 203 5.0 9.0 0.00 0.00 0.00 60 1014.7
20210618173021 89 225 5.0 9.0 0.00 0.00 0.00 62 1014.7
20210618172520 89 203 4.0 8.0 0.00 0.00 0.00 62 1014.8
20210618172020 89 248 3.0 8.0 0.00 0.00 0.00 62 1014.8
20210618171521 89 225 6.0 10.0 0.00 0.00 0.00 61 1014.8
20210618171020 90 180 3.0 8.0 0.00 0.00 0.00 63 1014.8
20210618170520 89 225 4.0 8.0 0.00 0.00 0.00 66 1014.9
20210618170020 88 203 4.0 12.0 0.00 0.00 0.00 62 1014.9
20210618165521 88 225 6.0 9.0 0.00 0.00 0.00 62 1014.9
20210618165020 89 158 3.0 7.0 0.00 0.00 0.00 62 1015.0
20210618164521 88 225 5.0 11.0 0.00 0.00 0.00 63 1015.0
20210618164020 88 225 7.0 13.0 0.00 0.00 0.00 65 1015.0
20210618163520 87 225 7.0 11.0 0.00 0.00 0.00 65 1015.1
20210618163021 87 225 8.0 12.0 0.00 0.00 0.00 64 1015.1
20210618162520 88 225 6.0 9.0 0.00 0.00 0.00 64 1015.2
20210618162021 88 225 6.0 13.0 0.00 0.00 0.00 64 1015.2
20210618161520 87 203 8.0 14.0 0.00 0.00 0.00 63 1015.1
20210618161020 87 225 7.0 12.0 0.00 0.00 0.00 64 1015.1
20210618160520 87 225 7.0 11.0 0.00 0.00 0.00 63 1015.0
20210618160020 87 203 7.0 11.0 0.00 0.00 0.00 64 1015.0
20210618155522 88 225 6.0 12.0 0.00 0.00 0.00 64 1015.0
20210618155021 88 225 5.0 9.0 0.00 0.00 0.00 64 1015.1
20210618154520 87 225 8.0 14.0 0.00 0.00 0.00 65 1015.1
20210618154020 87 225 7.0 12.0 0.00 0.00 0.00 65 1015.2
20210618153520 86 225 7.0 11.0 0.00 0.00 0.00 66 1015.2
20210618153021 86 225 6.0 14.0 0.00 0.00 0.00 66 1015.1
20210618152520 86 225 7.0 12.0 0.00 0.00 0.00 67 1015.2
20210618152023 86 225 7.0 13.0 0.00 0.00 0.00 67 1015.2
20210618151526 86 225 6.0 13.0 0.00 0.00 0.00 68 1015.3
20210618151027 85 203 7.0 14.0 0.00 0.00 0.00 69 1015.3
20210618150522 85 203 7.0 12.0 0.00 0.00 0.00 69 1015.3
20210618150027 85 225 8.0 13.0 0.00 0.00 0.00 69 1015.3
20210618145521 85 225 10.0 15.0 0.00 0.00 0.00 69 1015.3
20210618145022 85 225 9.0 14.0 0.00 0.00 0.00 69 1015.4
20210618144523 85 203 7.0 13.0 0.00 0.00 0.00 68 1015.4
20210618144020 84 203 9.0 15.0 0.00 0.00 0.00 70 1015.3
20210618143520 84 225 10.0 15.0 0.00 0.00 0.00 69 1015.3
20210618143021 84 225 10.0 15.0 0.00 0.00 0.00 71 1015.3
20210618142520 84 203 8.0 14.0 0.00 0.00 0.00 73 1015.3
20210618142021 83 225 9.0 13.0 0.00 0.00 0.00 73 1015.3
20210618141520 83 225 7.0 13.0 0.00 0.00 0.00 74 1015.4
20210618141020 83 225 10.0 15.0 0.00 0.00 0.00 74 1015.3
20210618140521 82 225 10.0 15.0 0.00 0.00 0.00 75 1015.3
20210618140020 82 225 9.0 14.0 0.00 0.00 0.00 76 1015.3
20210618135603 82 225 10.0 17.0 0.00 0.00 0.00 76 1015.4
20210618135021 82 203 7.0 12.0 0.00 0.00 0.00 77 1015.4
20210618134521 81 203 6.0 11.0 0.00 0.00 0.00 77 1015.3
20210618134020 81 225 8.0 15.0 0.00 0.00 0.00 78 1015.3
20210618133520 81 203 7.0 12.0 0.00 0.00 0.00 78 1015.3
20210618133020 80 203 6.0 13.0 0.00 0.00 0.00 79 1015.4
20210618132521 80 203 7.0 14.0 0.00 0.00 0.00 79 1015.3
20210618132020 80 180 6.0 11.0 0.00 0.00 0.00 79 1015.4
20210618131524 80 180 5.0 12.0 0.00 0.00 0.00 80 1015.4
20210618131020 80 203 5.0 10.0 0.00 0.00 0.00 80 1015.4
20210618130520 80 203 7.0 11.0 0.00 0.00 0.00 79 1015.4
20210618130021 80 203 6.0 11.0 0.00 0.00 0.00 80 1015.4
20210618125520 79 225 6.0 11.0 0.00 0.00 0.00 80 1015.5
20210618125022 79 225 3.0 7.0 0.00 0.00 0.00 81 1015.5
20210618124520 79 225 5.0 9.0 0.00 0.00 0.00 81 1015.4
20210618124020 78 203 5.0 8.0 0.00 0.00 0.00 81 1015.3
20210618123520 78 203 6.0 10.0 0.00 0.00 0.00 81 1015.3
20210618123020 78 180 7.0 15.0 0.00 0.00 0.00 82 1015.3
20210618122520 78 180 5.0 10.0 0.00 0.00 0.00 82 1015.3
20210618122020 77 180 4.0 9.0 0.00 0.00 0.00 82 1015.2
20210618121521 77 203 4.0 8.0 0.00 0.00 0.00 82 1015.3
20210618121021 77 203 5.0 11.0 0.00 0.00 0.00 83 1015.3
20210618120523 76 203 4.0 10.0 0.00 0.00 0.00 83 1015.4
20210618120020 76 203 4.0 8.0 0.00 0.00 0.00 83 1015.5
20210618115520 75 180 4.0 7.0 0.00 0.00 0.00 83 1015.4
20210618115029 75 180 3.0 7.0 0.00 0.00 0.00 83 1015.4
20210618114526 75 158 1.0 4.0 0.00 0.00 0.00 83 1015.3
20210618114029 74 180 1.0 3.0 0.00 0.00 0.00 83 1015.3
20210618113520 74 203 1.0 3.0 0.00 0.00 0.00 83 1015.3
20210618113020 74 180 1.0 4.0 0.00 0.00 0.00 83 1015.2
20210618112520 75 180 1.0 4.0 0.00 0.00 0.00 83 1015.2
20210618112020 75 180 1.0 2.0 0.00 0.00 0.00 83 1015.1
20210618111520 75 158 1.0 4.0 0.00 0.00 0.00 83 1015.1
20210618111020 75 158 2.0 4.0 0.00 0.00 0.00 83 1015.1
20210618110522 75 158 1.0 3.0 0.00 0.00 0.00 83 1015.1
20210618110022 75 180 1.0 3.0 0.00 0.00 0.00 83 1015.1
20210618105520 75 203 1.0 2.0 0.00 0.00 0.00 83 1015.1
20210618105021 75 225 2.0 3.0 0.00 0.00 0.00 83 1015.0
20210618104519 74 203 1.0 2.0 0.00 0.00 0.00 83 1014.8
20210618104019 74 0.0 0.0 0.00 0.00 0.00 83 1014.8
20210618103519 74 0.0 1.0 0.00 0.00 0.00 83 1014.8
20210618103020 75 203 1.0 3.0 0.00 0.00 0.00 83 1014.8
20210618102519 75 203 1.0 2.0 0.00 0.00 0.00 83 1014.8
20210618102020 75 180 1.0 4.0 0.00 0.00 0.00 83 1014.8
20210618101520 75 203 2.0 4.0 0.00 0.00 0.00 83 1014.8
20210618101019 75 225 2.0 4.0 0.00 0.00 0.00 83 1014.8
20210618100519 74 248 2.0 3.0 0.00 0.00 0.00 83 1014.8
20210618100022 74 248 1.0 2.0 0.00 0.00 0.00 83 1014.8
20210618095556 75 0.0 2.0 0.00 0.00 0.00 83 1014.8
20210618095020 75 248 1.0 2.0 0.00 0.00 0.00 83 1014.8
20210618094520 75 248 1.0 2.0 0.00 0.00 0.00 82 1014.8
20210618094020 75 248 1.0 2.0 0.00 0.00 0.00 82 1014.9
20210618093520 75 248 1.0 2.0 0.00 0.00 0.00 82 1014.8
20210618093020 75 248 1.0 2.0 0.00 0.00 0.00 82 1014.8
20210618092520 76 248 2.0 4.0 0.00 0.00 0.00 82 1014.9
20210618092019 75 270 2.0 3.0 0.00 0.00 0.00 82 1014.8
20210618091519 75 270 2.0 3.0 0.00 0.00 0.00 82 1014.8
20210618091019 76 225 2.0 3.0 0.00 0.00 0.00 82 1014.9
20210618090519 76 225 2.0 3.0 0.00 0.00 0.00 82 1014.8
20210618090022 75 248 3.0 4.0 0.00 0.00 0.00 82 1014.9
20210618085519 75 248 2.0 4.0 0.00 0.00 0.00 82 1014.9
20210618085019 75 225 1.0 2.0 0.00 0.00 0.00 82 1014.9
20210618084519 76 0.0 1.0 0.00 0.00 0.00 81 1014.9
20210618084019 76 225 1.0 2.0 0.00 0.00 0.00 81 1014.9
20210618083520 76 225 1.0 2.0 0.00 0.00 0.00 81 1014.9
20210618083021 76 225 2.0 4.0 0.00 0.00 0.00 81 1014.9
20210618082520 76 203 2.0 3.0 0.00 0.00 0.00 81 1014.9
20210618082019 76 203 2.0 3.0 0.00 0.00 0.00 81 1015.0
20210618081521 76 203 2.0 3.0 0.00 0.00 0.00 81 1015.0
20210618081019 76 0.0 2.0 0.00 0.00 0.00 82 1015.0
20210618080520 76 0.0 0.0 0.00 0.00 0.00 82 1015.0
20210618080020 77 0.0 1.0 0.00 0.00 0.00 82 1015.1
20210618075557 77 0.0 1.0 0.00 0.00 0.00 81 1015.1
20210618075019 77 0.0 1.0 0.00 0.00 0.00 80 1015.0
20210618074520 77 0.0 1.0 0.00 0.00 0.00 80 1015.0
20210618074020 77 0.0 1.0 0.00 0.00 0.00 79 1015.1
20210618073519 78 135 1.0 1.0 0.00 0.00 0.00 79 1015.0
20210618073020 78 135 1.0 2.0 0.00 0.00 0.00 79 1015.1
20210618072519 78 180 1.0 2.0 0.00 0.00 0.00 78 1015.1
20210618072020 78 180 1.0 2.0 0.00 0.00 0.00 78 1015.1
20210618071521 78 203 1.0 2.0 0.00 0.00 0.00 79 1015.2
20210618071020 78 248 1.0 3.0 0.00 0.00 0.00 76 1015.1
20210618070520 79 225 3.0 5.0 0.00 0.00 0.00 76 1015.0
20210618070031 78 225 3.0 5.0 0.00 0.00 0.00 76 1015.0
20210618065551 79 203 2.0 3.0 0.00 0.00 0.00 76 1015.1
20210618065020 79 203 2.0 3.0 0.00 0.00 0.00 76 1015.1
20210618064520 79 203 2.0 4.0 0.00 0.00 0.00 75 1015.2
20210618064019 79 203 2.0 3.0 0.00 0.00 0.00 75 1015.2
20210618063519 79 225 3.0 4.0 0.00 0.00 0.00 76 1015.2
20210618063019 79 225 2.0 4.0 0.00 0.00 0.00 77 1015.2
20210618062519 79 203 2.0 5.0 0.00 0.00 0.00 78 1015.3
20210618062019 79 203 2.0 3.0 0.00 0.00 0.00 78 1015.3